Regional Weather Roundup
Issued by NWS

Home | Current Version | Previous Version | Text Only | Print | Product List | Glossary Off
Versions: 1 2 3 4 5 6 7 8 9 10 11 12 13 14 15 16 17 18 19 20 21 22 23 24 25 26 27 28 29 30 31 32 33 34 35 36 37 38 39 40 41 42 43 44 45 46 47 48 49 50

000
ASUS43 KMPX 290710
RWRMN
WEATHER ROUNDUP FOR MINNESOTA
NATIONAL WEATHER SERVICE TWIN CITIES/CHANHASSEN MN
200 AM CDT SUN MAR 29 2015


NOTE: "FAIR" INDICATES FEW OR NO CLOUDS BELOW 12,000 FEET WITH NO
SIGNIFICANT WEATHER AND/OR OBSTRUCTIONS TO VISIBILITY. N/A MEANS
CURRENT SKY AND/OR WEATHER CONDITIONS ARE NOT AVAILABLE.

MNZ060>063-068>070-290800-
   Twin Cities Metro

CITY           SKY/WX    TMP DP  RH WIND       PRES   REMARKS
TWIN CITIES    PTCLDY    35  21  56 S14       29.87F WCI  26
ST PAUL        PTCLDY    36  20  52 S22G31    29.88F
CRYSTAL        PTCLDY    39  20  46 S16G31    29.83F
BLAINE         PTCLDY    37  21  52 S16       29.84F
LAKEVILLE      CLEAR     34  21  60 S14G23    29.87F WCI  24
EDEN PRAIRIE   PTCLDY    36  21  54 S16       29.84F
SOUTH ST PAUL  PTCLDY    36  20  52 S15       29.89F
LAKE ELMO      FAIR      34  21  60 S17G23    29.89F WCI  23
$$
MNZ001>005-007-008-013>017-022>024-027-028-290800-
   Northwest Minnesota

CITY           SKY/WX    TMP DP  RH WIND       PRES   REMARKS
BEMIDJI        CLOUDY    38  27  62 S16       29.60F
HALLOCK        LGT RAIN  39  37  93 S17       29.42F
ROSEAU         RAIN      37  34  87 S18G26    29.47F
WARROAD        RAIN      39  36  87 S14G23    29.49F
THIEF RVR FALL CLOUDY    39  36  87 S29G36    29.46F
CROOKSTON      MIX PCPN  37  37 100 S30       29.51F
FOSSTON        LGT RAIN  39  30  70 S23G30    29.54F
DETROIT LAKES  CLOUDY    41  32  70 S21G29    29.61F
MOORHEAD       CLOUDY    41  34  75 S18       29.59F
PARK RAPIDS    MOCLDY    40  26  57 S16       29.65F
MAHNOMEN       RAIN      41  32  71 S24G37    29.57F
$$
MNZ006-009>011-018-025>026-290800-
   North Central Minnesota

CITY           SKY/WX    TMP DP  RH WIND       PRES   REMARKS
BAUDETTE       LGT RAIN  37  31  78 S15G24    29.52F
FLAG ISLAND    RAIN      34  30  86 S18       29.46F WCI  23
INTL FALLS     MOCLDY    37  24  59 S8G22     29.59F
WASKISH        CLOUDY    39  28  65 CALM      29.56F
BIG FORK       FLURRIES  36  25  64 S15G22    29.64F
LONGVILLE      MOCLDY    36  25  64 S12       29.70S
GRAND RAPIDS   MOCLDY    36  21  55 SW6       29.77R
ORR            DRIZZLE   34  21  60 S10G18    29.68F WCI  26
COOK           CLOUDY    34  21  60 S12G20    29.75R WCI  25
WALKER         FAIR      37  25  62 S13G24    29.63F
$$
MNZ012-019>021-037-290800-
   Northeast Minnesota

CITY           SKY/WX    TMP DP  RH WIND       PRES   REMARKS
DULUTH         CLOUDY    34  17  50 S20       29.74F WCI  23
ELY            CLOUDY    34  19  55 SW14G23   29.74R WCI  24
HIBBING        CLOUDY    34  19  54 W9        29.79R WCI  27
EVELETH        CLOUDY    34  21  60 S10G20    29.74S WCI  26
DULUTH HARBOR  CLOUDY    37  19  48 S17       29.79F
TWO HARBORS    MOCLDY    36  23  60 S9        29.76F
SILVER BAY     CLOUDY    34  19  55 S9        29.76F WCI  26
GRAND MARAIS     N/A     32  24  72 W5        29.82F WCI  27
G MARAIS ARPRT MOCLDY    28  16  59 S10G20    29.75F WCI  19
$$
MNZ029>031-032-039>041-046>048-054>057-064-290800-
   West Central Minnesota

CITY           SKY/WX    TMP DP  RH WIND       PRES   REMARKS
FERGUS FALLS   LGT RAIN  37  28  70 S16       29.67F
WHEATON        CLOUDY    37  30  75 SE9       29.66F
MORRIS         CLOUDY    37  30  75 S9        29.69R
ALEXANDRIA     CLOUDY    39  28  64 S17G29    29.71R
ELBOW LAKE     CLOUDY    36  32  84 S17       29.67F
WADENA         MOCLDY    36  27  69 S7        29.69F
GLENWOOD       CLOUDY    37  28  70 S12G28    29.73R
APPLETON       CLOUDY    45  30  57 S10       29.70R
BENSON         LGT RAIN  39  30  70 S18       29.70R
ORTONVILLE     DRIZZLE   45  30  57 S13       29.67S
MADISON        CLOUDY    45  30  57 S14       29.69R
WILLMAR        FAIR      37  28  70 S18G24    29.74F
$$
MNZ033>034-036-042>043-049>051-058-059-290800-
   Central Minnesota

CITY           SKY/WX    TMP DP  RH WIND       PRES   REMARKS
ST CLOUD       MOCLDY    38  23  55 S20G31    29.76F
SAUK CENTRE    FAIR      37  28  70 S15G23    29.72S
PAYNESVILLE    CLOUDY    34  26  70 SE20G26   29.73F WCI  23
AITKIN         MOCLDY    37  25  60 S14G24    29.71F
PINE RIVER     PTCLDY    37  27  65 S13G21    29.75R
BRAINERD       MOCLDY    36  23  59 SW13      29.78R
STAPLES        MOCLDY    37  27  65 S12       29.72R
LONG PRAIRIE   FAIR      36  28  75 S15G24    29.75R
LITTLE FALLS   CLOUDY    37  23  56 S13G20    29.74F
LITCHFIELD     MOCLDY    37  27  65 S3        29.76F
BUFFALO        PTCLDY    37  23  56 S14G21    29.82F
MAPLE LAKE     PTCLDY    38  26  61 S14G24    29.80F
$$
MNZ037-044-045-052-053-290800-
   East Central Minnesota

CITY           SKY/WX    TMP DP  RH WIND       PRES   REMARKS
PRINCETON      MOCLDY    39  21  48 S13G22    29.81F
MORA           MOCLDY    34  21  60 S12       29.82F WCI  25
CAMBRIDGE      PTCLDY    37  23  56 S17       29.81S
RUSH CITY      PTCLDY    35  20  54 S14G21    29.83F WCI  26
MOOSE LAKE     CLOUDY    34  19  55 S10G20    29.76F WCI  26
HINCKLEY       FAIR      34  21  60 S14G21    29.81F WCI  24
CLOQUET        MOCLDY    36  18  48 S18       29.75F
MCGREGOR       CLOUDY    34  23  64 S17       29.74F WCI  23
$$
MNZ071>073-080-081-089-090-097-098-290800-
   Southwest Minnesota

CITY           SKY/WX    TMP DP  RH WIND       PRES   REMARKS
MONTEVIDEO     CLOUDY    41  30  65 SW14G22   29.70R
GRANITE FALLS  LGT RAIN  40  32  72 SE25G32   29.70F
CANBY          DRIZZLE   45  32  60 SW25G40   29.63S
MARSHALL       CLOUDY    43  28  56 SW33G45   29.66F
REDWOOD FALLS  PTCLDY    40  30  67 S23       29.73F
OLIVIA         MOCLDY    37  30  75 S17G25    29.74F
PIPESTONE      CLOUDY    39  32  75 S29G38    29.69R
WINDOM         PTCLDY    39  30  70 S23G32    29.78R
WORTHINGTON    MOCLDY    37  28  70 S26       29.79R
JACKSON        CLEAR     37  28  70 S25G32    29.80F
TRACY          MOCLDY    41  31  67 S30G43    29.64F
SLAYTON        LGT RAIN  38  30  72 S33G46    29.69F
$$
MNZ065>067-074>077-082>085-091>093-290800-
   South Central Minnesota

CITY           SKY/WX    TMP DP  RH WIND       PRES   REMARKS
MANKATO        PTCLDY    36  23  60 S16G23    29.85F
NEW ULM        FAIR      37  27  65 S20G28    29.79F
ST JAMES       PTCLDY    39  28  65 S25G31    29.81F
FAIRMONT       CLEAR     36  25  64 S23G29    29.81F
GLENCOE        PTCLDY    37  28  70 S12G24    29.81F
FARIBAULT      CLEAR     34  23  64 S18G29    29.88F WCI  23
OWATONNA       CLEAR     34  21  60 S23G33    29.89F WCI  22
WASECA         PTCLDY    34  23  64 S22G30    29.89F WCI  22
ALBERT LEA     CLEAR     36  21  55 S22G30    29.89F
$$
MNZ078>079-086>088-094>096-290800-
   Southeast Minnesota

CITY           SKY/WX    TMP DP  RH WIND       PRES   REMARKS
ROCHESTER      CLEAR     31  19  61 S23G30    29.93F WCI  18
RED WING       PTCLDY    36  16  44 S9G17     29.93F
STANTON        CLEAR     35  22  60 S14       29.89S WCI  25
DODGE CENTER   PTCLDY    30  23  74 S21G26    29.90F WCI  17
WINONA         PTCLDY    36  18  48 S10G20    29.99S
AUSTIN         CLEAR     34  21  60 S20G33    29.92F WCI  22
PRESTON        CLEAR     30  19  63 S18G26    29.96F WCI  18
$$
ABBREVIATIONS USED IN REMARKS
   TC - TEMPERATURES IN CELSIUS
  WCI - WIND CHILL INDEX
   HX - HEAT INDEX
  VSB - VISIBILITY
$$


USA.gov is the U.S. government's official web portal to all federal, state and local government web resources and services.